Location: Bacea
(45.9500°N, 22.6667°E)
Time: 11:34:53
(UTC+00:00)

Cosmos 489 Rocket - Pass Details

Date: 25 May 2022
Orbit: 952 x 983 km, 74.0° (Epoch: 03 July)

Event Time Altitude Azimuth Distance (km) Brightness Sun altitude
Rises 01:20:54 0° 343° (NNW) 3,642 8.0 -12.3°
Reaches altitude 10° 01:23:43 10° 353° (N) 2,696 7.4 -12.0°
Maximum altitude 01:29:17 33° 56° (ENE) 1,561 6.4 -11.3°
Drops below altitude 10° 01:34:51 10° 120° (ESE) 2,698 7.0 -10.7°
Sets 01:37:39 0° 129° (SE) 3,646 7.6 -10.3°
